Track WESTFORD NEEDLES now! 10-day predictions WESTFORD NEEDLES is classified as:
1 20504U 63014FD 21024.78523715 .00001523 00000-0 15634-2 0 9994 2 20504 84.5524 58.8807 2942376 222.5682 110.5854 8.91391535250631